This demonstration page uses our WeatherBlox Daily Observations layout. Learn more.

Left ArrowRight Arrow

39.08367, -84.50855

Hourly Observations for February 29, 2020

Temp ( °F °C ) Dew Point ( °F °C ) Humidity (%) Winds ( mph kmh ) Pressure ( in mb ) Visibility ( mi km ) Precip ( " mm )
12:53 am 00:53 Mostly Cloudy 26 -3.3 15 -9.4 63 63 N 14 22 30.14 1021 10 16 N/A
1:53 am 01:53 Clear 24 -4.4 15 -9.4 68 68 NNW 7 11 30.15 1021 10 16 N/A
2:53 am 02:53 Clear 24 -4.4 15 -9.4 68 68 VRB 3 6 30.16 1021 10 16 N/A
3:53 am 03:53 Clear 24 -4.4 14 -10 65 65 WNW 5 7 30.17 1022 10 16 N/A
4:53 am 04:53 Clear 23 -5 14 -10 68 68 WNW 8 13 30.18 1022 10 16 N/A
5:53 am 05:53 Clear 22 -5.6 13 -10.6 68 68 W 8 13 30.20 1023 10 16 N/A
6:53 am 06:53 Clear 21 -6.1 13 -10.6 71 71 W 10 17 30.22 1023 10 16 N/A
7:53 am 07:53 Sunny 22 -5.6 13 -10.6 68 68 W 10 17 30.24 1024 10 16 N/A
8:53 am 08:53 Sunny 25 -3.9 14 -10 63 63 W 8 13 30.26 1025 10 16 N/A
9:53 am 09:53 Sunny 28 -2.2 14 -10 56 56 W 8 13 30.27 1025 10 16 N/A
10:53 am 10:53 Sunny 30 -1.1 14 -10 51 51 W 9 15 30.28 1026 10 16 N/A
11:53 am 11:53 Sunny 32 undefined 15 -9.4 50 50 W 10 17 30.29 1026 10 16 N/A
12:53 pm 12:53 Sunny 34 1.1 13 -10.6 42 42 WSW 7 11 30.28 1026 10 16 N/A
1:53 pm 13:53 Sunny 36 2.2 11 -11.7 35 35 WSW 10 17 30.27 1025 10 16 N/A
2:53 pm 14:53 Sunny 37 2.8 11 -11.7 34 34 WSW 13 20 30.25 1024 10 16 N/A
3:53 pm 15:53 Sunny 38 3.3 11 -11.7 33 33 W 12 19 30.25 1024 10 16 N/A
4:53 pm 16:53 Sunny 38 3.3 9 -12.8 30 30 W 8 13 30.25 1024 10 16 N/A
5:53 pm 17:53 Sunny 36 2.2 10 -12.2 34 34 W 9 15 30.26 1025 10 16 N/A
6:53 pm 18:53 Clear 32 undefined 12 -11.1 43 43 W 5 7 30.27 1025 10 16 N/A
7:53 pm 19:53 Clear 29 -1.7 18 -7.8 63 63 N N/A 30.27 1025 10 16 N/A
8:53 pm 20:53 Clear 27 -2.8 18 -7.8 69 69 N N/A 30.27 1025 10 16 N/A
9:53 pm 21:53 Clear 26 -3.3 20 -6.7 78 78 N N/A 30.27 1025 10 16 N/A
10:53 pm 22:53 Clear 24 -4.4 18 -7.8 77 77 N N/A 30.26 1025 10 16 N/A
11:53 pm 23:53 Clear 23 -5 19 -7.2 85 85 N N/A 30.26 1025 10 16 N/A

Powered by AerisWeather